Glenwood, MN

9:49 AM CST on January 24, 2017 (GMT -0600)
Glenwood Municipal

Weather History for KGHW - February, 2012

Change the Weather History Date:

Tuesday, February 14, 2012

  Actual Average Record
Temperature  
Mean Temperature 24 °F -  
Max Temperature 37 °F 25 °F 46 °F (1999)
Min Temperature 12 °F 5 °F -28 °F (1970)
Degree Days  
Heating Degree Days 40    
Moisture  
Dew Point 20 °F    
Average Humidity 80    
Maximum Humidity 93    
Minimum Humidity 48    
Precipitation  
Precipitation 0.00 in - - ()
Sea Level Pressure  
Sea Level Pressure 29.66 in    
Wind  
Wind Speed 5 mph (South)    
Max Wind Speed 15 mph    
Max Gust Speed -    
Visibility 7 miles    
Events Snow    
Averages and records for this station are not official NWS values.
T = Trace of Precipitation, MM = Missing Value Source: NWS Daily Summary

Daily Weather History Graph

Daily Weather History Graph

Search for Another Location

Airport or City:

Trip Planner

Search our weather history database for the weather conditions in past years. The results will help you decide how hot, cold, wet, or windy it might be!

Date:

Astronomy

Feb. 14, 2012 Rise Set
Actual Time 7:25 AM CST 5:46 PM CST
Civil Twilight 6:54 AM CST 6:16 PM CST
Nautical Twilight 6:20 AM CST 6:51 PM CST
Astronomical Twilight 5:45 AM CST 7:25 PM CST
Moon 1:18 AM CST (2/14) 10:44 AM CST (2/14)
Length of Visible Light 11h 21m
Length of Day
10h 20m
Waning Gibbous, 50% of the Moon is Illuminated
Feb 14
Waning Gibbous
Feb 21
New
Feb 29
First Quarter
Mar 8
Full
Mar 14
Last Quarter

Hourly Weather History & Observations

Time (CST) Temp. Windchill Dew Point Humidity Pressure Visibility Wind Dir Wind Speed Gust Speed Precip Events Conditions
12:14 AM 17.6 °F 10.7 °F 15.8 °F 93% 29.68 in 7.0 mi South 4.6 mph - N/A   Clear
12:34 AM 17.6 °F - 15.8 °F 93% 29.67 in 5.0 mi Calm Calm - N/A   Clear
12:53 AM 17.6 °F 10.7 °F 15.8 °F 93% 29.67 in 5.0 mi South 4.6 mph - N/A   Clear
1:14 AM 15.8 °F 6.1 °F 12.2 °F 86% 29.67 in 5.0 mi South 6.9 mph - N/A   Clear
1:33 AM 15.8 °F 6.1 °F 12.2 °F 86% 29.67 in 5.0 mi South 6.9 mph - N/A   Clear
1:54 AM 15.8 °F 7.2 °F 14.0 °F 93% 29.67 in 5.0 mi South 5.8 mph - N/A   Clear
2:14 AM 15.8 °F 10.2 °F 14.0 °F 93% 29.67 in 5.0 mi South 3.5 mph - N/A   Clear
2:34 AM 17.6 °F 12.3 °F 14.0 °F 86% 29.67 in 7.0 mi South 3.5 mph - N/A   Clear
3:13 AM 15.8 °F 8.6 °F 12.2 °F 86% 29.66 in 7.0 mi South 4.6 mph - N/A   Clear
3:34 AM 14.0 °F 5.1 °F 10.4 °F 86% 29.66 in 7.0 mi South 5.8 mph - N/A   Clear
3:54 AM 14.0 °F 6.5 °F 10.4 °F 86% 29.66 in 7.0 mi South 4.6 mph - N/A   Clear
4:14 AM 14.0 °F 5.1 °F 10.4 °F 86% 29.65 in 7.0 mi South 5.8 mph - N/A   Clear
4:34 AM 14.0 °F 6.5 °F 10.4 °F 86% 29.65 in 7.0 mi South 4.6 mph - N/A   Clear
4:54 AM 14.0 °F 6.5 °F 10.4 °F 86% 29.65 in 7.0 mi South 4.6 mph - N/A   Clear
5:13 AM 12.2 °F 4.3 °F 10.4 °F 92% 29.65 in 7.0 mi South 4.6 mph - N/A   Clear
5:34 AM 14.0 °F 5.1 °F 10.4 °F 86% 29.65 in 7.0 mi South 5.8 mph - N/A   Clear
5:54 AM 12.2 °F 4.3 °F 8.6 °F 85% 29.64 in 7.0 mi South 4.6 mph - N/A   Clear
6:14 AM 12.2 °F 2.9 °F 10.4 °F 92% 29.64 in 7.0 mi South 5.8 mph - N/A   Clear
6:33 AM 15.8 °F 8.6 °F 12.2 °F 86% 29.64 in 7.0 mi SSE 4.6 mph - N/A   Mostly Cloudy
6:54 AM 15.8 °F 8.6 °F 12.2 °F 86% 29.64 in 7.0 mi SE 4.6 mph - N/A   Overcast
7:14 AM 15.8 °F 8.6 °F 12.2 °F 86% 29.65 in 7.0 mi SE 4.6 mph - N/A   Overcast
7:34 AM 17.6 °F 10.7 °F 14.0 °F 86% 29.65 in 7.0 mi SE 4.6 mph - N/A   Overcast
7:54 AM 17.6 °F 10.7 °F 14.0 °F 86% 29.64 in 5.0 mi SE 4.6 mph - N/A   Overcast
8:53 AM 19.4 °F 12.8 °F 17.6 °F 93% 29.65 in 5.0 mi SE 4.6 mph - N/A   Mostly Cloudy
9:14 AM 21.2 °F 14.9 °F 17.6 °F 86% 29.65 in 7.0 mi SE 4.6 mph - N/A   Mostly Cloudy
9:34 AM 23.0 °F 14.7 °F 19.4 °F 86% 29.65 in 7.0 mi SE 6.9 mph - N/A   Overcast
9:54 AM 24.8 °F 15.3 °F 21.2 °F 86% 29.65 in 7.0 mi SSE 9.2 mph - N/A   Scattered Clouds
10:14 AM 24.8 °F 15.3 °F 21.2 °F 86% 29.64 in 7.0 mi SSE 9.2 mph - N/A   Scattered Clouds
10:34 AM 26.6 °F 17.5 °F 23.0 °F 86% 29.64 in 10.0 mi SE 9.2 mph - N/A   Scattered Clouds
10:54 AM 28.4 °F 18.5 °F 21.2 °F 74% 29.64 in 10.0 mi SE 11.5 mph - N/A   Scattered Clouds
11:13 AM 30.2 °F 19.3 °F 21.2 °F 69% 29.64 in 10.0 mi SE 15.0 mph - N/A   Scattered Clouds
11:34 AM 32.0 °F 22.5 °F 21.2 °F 64% 29.64 in 10.0 mi SSE 12.7 mph - N/A   Scattered Clouds
11:54 AM 33.8 °F 25.8 °F 21.2 °F 60% 29.64 in 10.0 mi SSE 10.4 mph - N/A   Scattered Clouds
12:14 PM 35.6 °F 28.0 °F 19.4 °F 52% 29.63 in 10.0 mi South 10.4 mph - N/A   Scattered Clouds
12:34 PM 35.6 °F 29.9 °F 19.4 °F 52% 29.63 in 10.0 mi SSE 6.9 mph - N/A   Clear
12:54 PM 37.4 °F 30.8 °F 19.4 °F 48% 29.63 in 10.0 mi South 9.2 mph - N/A   Scattered Clouds
1:14 PM 37.4 °F 30.8 °F 21.2 °F 52% 29.63 in 10.0 mi South 9.2 mph - N/A   Scattered Clouds
1:34 PM 37.4 °F 30.8 °F 21.2 °F 52% 29.62 in 10.0 mi SE 9.2 mph - N/A   Mostly Cloudy
1:54 PM 37.4 °F 31.4 °F 21.2 °F 52% 29.62 in 10.0 mi SSE 8.1 mph - N/A   Mostly Cloudy
2:14 PM 37.4 °F 32.1 °F 21.2 °F 52% 29.62 in 10.0 mi SE 6.9 mph - N/A   Overcast
2:34 PM 37.4 °F 31.4 °F 21.2 °F 52% 29.62 in 10.0 mi South 8.1 mph - N/A   Mostly Cloudy
2:54 PM 37.4 °F 31.4 °F 21.2 °F 52% 29.62 in 10.0 mi SE 8.1 mph - N/A   Scattered Clouds
3:13 PM 37.4 °F 32.1 °F 21.2 °F 52% 29.63 in 10.0 mi SSE 6.9 mph - N/A   Scattered Clouds
3:34 PM 37.4 °F 34.9 °F 21.2 °F 52% 29.63 in 10.0 mi SSE 3.5 mph - N/A   Scattered Clouds
3:54 PM 37.4 °F 32.1 °F 21.2 °F 52% 29.63 in 10.0 mi SSE 6.9 mph - N/A   Mostly Cloudy
4:14 PM 35.6 °F 29.2 °F 21.2 °F 56% 29.63 in 10.0 mi South 8.1 mph - N/A   Overcast
4:34 PM 35.6 °F 29.2 °F 24.8 °F 65% 29.64 in 2.5 mi South 8.1 mph - N/A Snow Light Snow
4:54 PM 33.8 °F 29.6 °F 24.8 °F 70% 29.64 in 10.0 mi SE 4.6 mph - N/A   Overcast
5:13 PM 33.8 °F 30.8 °F 24.8 °F 70% 29.65 in 3.0 mi SE 3.5 mph - N/A Snow Light Snow
5:33 PM 32.0 °F - 28.4 °F 87% 29.66 in 2.5 mi Calm Calm - N/A Snow Light Snow
5:54 PM 30.2 °F - 28.4 °F 93% 29.67 in 7.0 mi Calm Calm - N/A   Overcast
6:14 PM 30.2 °F - 28.4 °F 93% 29.68 in 7.0 mi Calm Calm - N/A   Overcast
6:34 PM 30.2 °F 26.7 °F 28.4 °F 93% 29.69 in 5.0 mi SE 3.5 mph - N/A   Overcast
6:54 PM 30.2 °F - 28.4 °F 93% 29.69 in 2.5 mi Calm Calm - N/A Snow Light Snow
7:14 PM 30.2 °F - 28.4 °F 93% 29.69 in 4.0 mi Calm Calm - N/A Snow Light Snow
7:34 PM 30.2 °F 26.7 °F 28.4 °F 93% 29.70 in 3.0 mi WSW 3.5 mph - N/A   Overcast
7:54 PM 30.2 °F 26.7 °F 28.4 °F 93% 29.70 in 3.0 mi West 3.5 mph - N/A Snow Light Snow
8:14 PM 30.2 °F - 28.4 °F 93% 29.70 in 3.0 mi Calm Calm - N/A Snow Light Snow
8:34 PM 30.2 °F - 28.4 °F 93% 29.70 in 3.0 mi Calm Calm - N/A   Overcast
8:54 PM 30.2 °F - 28.4 °F 93% 29.70 in 3.0 mi Calm Calm - N/A   Overcast
9:34 PM 30.2 °F 25.4 °F 26.6 °F 86% 29.71 in 4.0 mi WSW 4.6 mph - N/A   Overcast
9:54 PM 30.2 °F 25.4 °F 26.6 °F 86% 29.72 in 4.0 mi WSW 4.6 mph - N/A   Overcast
10:14 PM 30.2 °F 25.4 °F 28.4 °F 93% 29.73 in 5.0 mi WSW 4.6 mph - N/A   Overcast
10:34 PM 30.2 °F 24.3 °F 26.6 °F 86% 29.73 in 4.0 mi SW 5.8 mph - N/A   Overcast
10:54 PM 28.4 °F 23.3 °F 26.6 °F 93% 29.74 in 4.0 mi WSW 4.6 mph - N/A   Overcast
11:14 PM 28.4 °F 23.3 °F 24.8 °F 86% 29.74 in 4.0 mi SW 4.6 mph - N/A   Overcast
11:34 PM 26.6 °F 21.2 °F 24.8 °F 93% 29.75 in 3.0 mi SSW 4.6 mph - N/A   Overcast
11:54 PM 24.8 °F 20.5 °F 23.0 °F 93% 29.75 in 3.0 mi WSW 3.5 mph - N/A   Scattered Clouds